OneWeb SL0403

operational
NORAD ID: 50483 Int'l Des: 2021-132 Owner: ONEWEBN Country: UK Constellation: oneweb
LEOCIRCULARPOLARONEWEB_TYPE

OneWeb SL0403について

説明を読み込み中...

リアルタイム位置

3D地球を読み込み中...

次回通過

高度履歴

Altitude vs Time

uPlot chart will show altitude changes over time

軌道要素

1 50483U 21132Q 25353.44209050 .00000038 00000-0 63881-4 0 9992
2 50483 87.9177 11.1484 0001737 96.0377 264.0953 13.18686394197904
Epoch: Dec 19, 2025 • Age: 11 hours

現在のステータス

高度 1199.2 km
速度 7.26 km/s
衛星直下点 61.60°N, 41.56°W
打ち上げ日 Dec 27, 2021
運用期間 3.9 years
タイプ internet

技術仕様

分類 Payload
質量 148.00 kg
乾燥質量 140.00 kg
総質量 148.00 kg
長さ 1.30 m
直径 1.00 m
スパン 5.00 m
形状 Trapezoid+2 pan
製造者 ONEWUS
バスタイプ ARROW
フェーズステータス In Orbit
所有者/国 ONEWEBN/UK

大規模コンステレーション

Loading constellations...